Temperature
15 16 16 16 16 16 16 16 15 15 15 15 15 15 15 15 15 15 15 15 14 14 14 14 14 14 14 14 14 14 13 13 13 13 13 13 13 14 14 13 13 13 12
15 15 16 16 16 16 16 16 16 15 15 15 15 15 15 15 15 15 14 14 14 14 14 14 14 14 14 14 14 13 13 13 13 13 12 12 13 13 13 13 13 12 12
15 15 16 16 16 16 16 16 16 16 16 15 15 15 15 15 14 14 14 14 14 14 14 14 14 14 14 14 14 13 13 13 13 12 12 12 12 12 12 12 12 12 12
15 15 16 16 16 16 16 16 16 16 16 15 15 15 15 15 15 15 15 14 14 14 14 14 14 14 14 13 13 13 13 13 13 12 12 12 11 11 11 11 11 11 11
15 16 16 16 16 16 16 16 16 16 16 15 15 15 15 15 15 15 14 14 14 14 14 14 14 13 13 13 13 13 13 12 12 12 12 12 11 11 10 10 11 10 10
15 16 16 16 16 16 16 16 16 16 16 15 15 15 15 15 15 14 14 14 14 14 14 14 13 13 13 13 13 12 12 12 12 12 12 11 11 11 10 10 10 10 9
15 16 16 16 16 16 16 16 16 16 16 15 15 15 15 15 14 14 14 14 14 14 14 13 13 13 13 13 12 12 12 12 12 12 11 11 11 10 9 9 9 9 9
15 15 16 16 16 16 16 16 15 15 15 15 15 15 14 14 14 14 14 14 14 14 13 13 13 13 13 12 12 12 12 12 11 11 11 11 10 10 9 9 8 8 8
14 15 15 15 15 15 15 15 15 15 15 15 15 14 14 14 14 14 13 13 13 13 13 13 13 12 12 12 12 12 12 11 11 11 10 10 10 9 9 9 8 8 8
13 14 14 14 14 15 15 15 15 14 14 14 14 14 14 14 14 13 13 13 13 13 12 12 12 12 12 12 11 11 11 11 10 10 10 9 9 9 8 8 8 7 7
13 13 13 14 14 14 14 14 14 14 14 13 13 13 13 13 13 13 13 12 12 12 12 12 11 11 11 11 11 10 10 10 9 9 9 8 8 8 7 7 7 7 6
12 12 12 13 13 13 13 13 13 13 13 13 13 13 13 12 12 12 12 12 12 11 11 11 11 10 10 10 10 9 9 8 8 8 8 7 7 7 7 6 6 6 6
11 11 12 12 12 12 12 12 12 12 12 12 12 12 12 12 11 11 11 11 11 11 10 10 10 10 9 9 9 8 8 8 7 7 7 7 6 6 6 6 6 5 5
10 11 11 11 11 11 11 11 11 11 11 11 11 11 11 11 11 10 10 10 10 10 10 9 9 9 8 8 8 7 7 7 6 6 6 6 5 5 5 5 5 5 5
10 10 10 10 10 10 10 10 10 10 10 10 10 10 10 10 9 9 9 9 9 9 8 8 8 8 7 7 6 6 6 6 5 5 5 5 4 4 4 4 4 4 4
9 9 9 10 10 10 10 10 10 9 9 9 9 9 9 9 9 9 8 8 8 8 8 7 7 7 6 6 5 5 5 5 4 4 4 4 4 3 4 4 3 3 3
8 9 9 9 9 9 9 9 9 9 9 9 9 8 8 8 8 8 8 7 7 7 7 6 6 6 5 5 4 4 4 4 3 3 3 3 3 3 3 3 3 3 3
8 8 9 9 9 9 9 9 8 8 8 8 8 8 8 8 7 7 7 7 6 6 6 6 5 5 4 4 4 3 3 3 2 2 2 2 2 2 2 2 2 2 2
7 8 8 8 8 8 8 8 8 8 8 8 8 8 7 7 7 7 6 6 6 5 5 5 4 4 4 3 3 2 2 2 2 2 1 1 1 1 1 1 1 1 1
7 7 7 8 8 8 8 8 8 8 8 8 7 7 7 7 6 6 5 5 5 4 4 4 3 3 3 2 2 2 1 1 1 1 1 1 1 0 0 0 0 0 0
6 6 7 7 7 7 7 7 7 7 7 7 7 6 6 6 5 5 5 4 4 4 3 3 3 2 2 1 1 1 1 0 0 0 0 0 0 -0 -0 -0 -0 -0 -0
5 6 6 6 6 7 7 7 7 7 6 6 6 6 5 5 5 4 4 4 3 3 3 3 2 2 1 1 0 0 -0 -0 -0 -0 -0 -0 -1 -1 -1 -1 -1 -1 -1
5 5 5 5 5 6 6 6 6 6 6 6 5 5 5 5 4 4 4 3 3 3 2 2 2 1 1 0 -0 -0 -0 -1 -1 -1 -1 -1 -1 -1 -1 -1 -1 -1 -1
4 4 4 5 5 5 5 5 5 5 5 5 5 5 4 4 4 3 3 3 2 2 2 1 1 1 0 -0 -0 -0 -1 -1 -1 -1 -1 -1 -1 -1 -1 -2 -2 -2 -2
3 3 4 4 4 4 4 4 4 4 4 4 4 4 4 3 3 3 3 2 2 1 1 1 0 0 0 -0 -0 -1 -1 -1 -1 -1 -2 -2 -2 -1 -2 -2 -2 -2 -2
3 3 3 3 3 3 3 3 3 3 3 3 3 3 3 3 2 2 2 1 1 1 1 0 0 -0 -0 -1 -1 -1 -1 -1 -2 -2 -2 -2 -2 -2 -2 -2 -2 -2 -2
Wind_Speed
9 8 8 9 9 10 11 12 13 12 11 9 9 8 8 7 6 7 12 13 13 13 11 6 6 6 5 5 5 3 3 3 2 1 3 3 4 4 3 3 2 1 2
9 9 9 8 9 11 12 12 13 13 12 10 9 6 6 5 6 6 9 12 12 12 11 8 5 5 4 4 4 4 3 3 3 3 1 3 4 3 2 1 1 1 1
13 11 11 10 10 11 12 12 12 12 12 10 6 5 4 3 4 5 6 7 11 11 10 9 7 5 5 5 4 4 5 4 3 3 3 3 4 2 2 2 2 1 2
12 11 12 11 11 12 11 11 12 12 11 11 10 10 8 7 7 6 6 5 9 10 10 9 7 5 4 4 4 4 3 4 3 3 3 4 3 3 2 1 2 3 2
12 12 12 12 11 10 10 10 11 11 11 11 12 11 9 7 5 5 6 6 5 7 8 8 6 5 4 4 3 3 3 4 4 3 2 3 3 4 4 3 1 1 1
11 11 9 8 8 8 8 8 10 10 10 11 11 11 11 9 8 7 8 6 4 3 5 7 6 5 4 4 3 3 4 4 4 3 3 3 3 3 4 5 3 3 1
10 10 9 9 9 9 8 8 10 9 9 10 10 11 11 11 10 9 9 8 5 4 5 4 4 4 4 4 3 3 3 3 3 4 3 3 3 2 2 3 3 3 2
7 8 10 10 10 10 9 9 9 8 8 9 9 8 9 7 6 7 7 7 5 5 5 5 5 5 4 4 3 3 2 2 3 3 3 2 2 2 3 3 3 3 2
5 6 6 7 8 9 9 9 9 7 7 8 7 7 8 7 7 6 6 5 5 4 5 5 5 4 4 4 3 2 2 2 2 2 2 2 2 2 3 3 3 4 4
2 3 3 4 5 6 6 7 7 7 6 6 6 6 6 7 7 7 7 6 6 5 6 5 5 4 3 3 3 2 2 2 2 2 2 2 2 2 2 2 3 3 4
3 2 2 2 3 4 5 6 6 7 6 6 6 6 6 6 7 7 7 7 6 6 6 6 5 4 3 3 3 2 2 2 1 1 1 1 1 1 1 1 2 2 2
2 2 3 3 4 4 5 6 6 6 6 6 7 7 6 7 7 7 6 6 7 6 5 5 5 4 4 3 3 2 2 2 2 2 1 1 0 0 1 1 1 1 1
1 1 2 2 3 4 4 5 6 7 6 7 8 7 7 7 7 7 7 7 6 6 5 5 5 4 3 3 2 2 2 2 1 1 1 1 1 1 0 0 0 0 1
1 1 1 2 3 3 4 5 6 6 7 7 8 8 7 7 7 7 7 7 6 6 5 5 4 3 3 3 2 2 2 2 2 2 1 1 1 1 1 1 0 1 1
2 2 3 3 3 3 4 5 6 6 7 8 8 7 7 7 7 7 7 7 6 6 5 5 4 3 2 2 3 3 3 3 3 2 2 1 2 2 2 1 1 2 2
4 4 4 4 4 5 6 6 6 7 8 8 8 7 8 8 7 7 7 6 6 5 5 4 4 3 2 3 4 4 3 3 3 3 2 2 3 3 4 4 3 3 3
5 5 5 6 6 6 7 8 7 7 8 8 8 8 8 8 7 7 7 7 6 5 5 4 4 3 3 4 4 5 4 3 3 3 3 2 3 4 4 6 7 5 3
4 4 4 4 5 5 5 5 6 8 9 8 8 8 9 8 7 7 7 6 5 5 4 4 4 3 3 4 4 5 4 3 3 3 4 3 3 3 4 4 4 5 4
5 5 4 4 3 4 5 6 6 8 8 9 9 9 9 9 8 8 7 5 5 4 4 4 4 4 3 5 5 6 4 3 3 3 3 4 3 5 6 5 4 4 3
6 4 3 2 1 2 4 7 7 8 9 9 9 8 9 9 9 8 6 4 4 5 4 4 4 4 4 6 7 7 4 4 3 2 3 5 5 5 6 5 5 4 2
6 4 3 2 1 1 4 6 6 8 7 7 7 7 8 8 8 7 5 5 5 5 4 4 3 4 6 7 8 9 4 4 4 3 3 3 7 6 6 6 5 5 5
6 5 3 3 3 1 3 4 5 4 5 6 7 7 7 7 7 7 6 6 6 6 5 4 4 3 4 6 8 10 9 7 5 5 4 4 7 7 7 5 6 7 6
6 5 3 3 3 3 2 3 2 3 5 6 6 6 7 6 7 8 7 6 6 5 5 5 5 4 4 5 11 11 11 11 6 5 8 8 9 7 5 6 8 6 4
5 4 3 3 3 3 2 1 2 4 5 6 5 6 6 6 6 6 6 6 7 6 6 6 6 5 4 5 5 5 5 8 6 5 7 9 9 6 6 5 4 4 5
3 3 3 2 2 3 2 2 2 4 4 4 4 5 5 6 6 5 6 7 6 7 7 7 6 6 6 9 12 8 6 5 5 5 3 3 2 3 3 3 3 4 4
3 2 3 2 2 2 2 2 1 2 4 4 4 4 4 4 4 4 4 7 8 10 12 11 9 8 10 10 12 14 14 13 12 7 4 6 6 6 6 6 5 5 5
Wind_Direction
244 238 217 194 184 182 181 183 181 181 176 175 176 176 180 178 176 179 182 183 182 182 180 183 186 185 188 195 192 184 192 211 179 191 300 300 284 275 273 262 251 234 218
234 228 225 203 190 186 185 186 185 182 181 182 181 177 171 175 179 176 181 184 182 181 184 182 182 185 187 190 189 180 182 208 180 173 217 302 320 326 331 329 239 219 129
221 216 214 212 197 191 187 187 189 187 185 181 166 146 132 136 164 180 183 185 183 182 181 184 180 177 181 192 195 188 188 208 215 193 185 207 245 294 334 16 25 53 74
216 211 208 208 203 200 192 184 184 185 184 177 174 172 178 185 191 184 181 177 178 177 179 178 175 170 173 184 196 190 191 191 214 225 225 219 202 221 274 322 23 50 54
213 210 207 204 202 196 190 185 179 182 181 179 180 182 187 189 171 162 167 174 169 169 172 169 165 164 167 179 190 194 198 204 210 211 216 228 230 224 225 248 239 54 41
215 212 207 197 195 190 187 182 177 180 180 179 181 184 185 177 165 171 177 174 166 163 160 156 154 158 160 166 184 194 198 209 215 218 215 208 215 217 217 232 224 214 166
211 206 198 192 188 184 183 179 177 180 180 179 182 186 186 183 182 182 181 175 174 179 181 162 159 158 161 160 162 186 205 208 211 217 224 226 229 220 221 231 232 218 184
206 203 199 192 189 186 180 175 176 176 176 177 179 180 180 181 185 181 175 175 178 176 166 158 156 154 153 152 157 182 199 200 210 218 217 223 234 227 225 224 219 233 213
195 195 192 188 186 183 181 177 173 170 171 173 168 167 166 165 165 161 157 157 157 154 150 150 153 152 148 148 156 174 188 189 208 216 213 220 230 232 235 231 220 222 231
150 168 179 183 181 177 171 165 163 163 160 158 159 160 158 158 156 151 155 155 151 145 144 144 143 140 136 134 138 147 161 170 206 215 211 215 226 235 239 235 234 225 223
157 168 165 156 146 144 149 152 155 150 149 150 145 141 143 142 141 145 150 149 143 145 146 145 141 139 137 134 134 143 159 185 208 215 206 221 232 244 259 249 231 222 205
144 146 143 138 138 143 151 154 152 148 147 143 136 135 134 133 133 133 133 133 132 131 135 131 131 137 135 131 141 156 168 189 206 213 191 215 122 275 321 272 239 221 199
102 99 114 143 156 156 155 159 158 153 145 138 134 131 131 132 132 130 124 120 119 116 115 120 131 134 129 124 132 150 151 159 168 165 176 186 162 211 275 287 252 232 150
231 194 193 197 186 174 165 161 161 156 148 143 141 141 141 138 132 127 123 120 119 118 114 114 119 118 115 119 126 134 133 126 112 106 120 139 162 189 189 174 182 137 124
272 232 217 215 203 189 180 170 166 159 152 148 148 150 140 133 129 127 125 121 121 122 122 122 115 111 120 141 148 146 143 135 116 95 87 94 118 139 151 151 165 154 146
269 248 228 214 207 199 191 183 176 168 156 155 156 148 141 139 137 136 132 127 125 124 126 130 133 142 157 168 167 156 148 148 147 139 106 83 76 89 91 95 117 153 163
283 261 242 227 217 208 195 190 184 167 159 160 157 154 151 149 149 146 141 143 143 141 142 145 149 158 173 177 176 169 152 157 160 158 149 129 107 87 75 73 64 58 83
303 289 274 252 233 214 196 182 169 166 165 164 163 161 158 157 154 152 155 155 149 153 156 161 160 161 184 183 173 163 141 151 163 167 163 154 144 141 124 101 76 56 44
303 288 275 262 238 210 188 165 166 168 169 174 174 171 166 163 163 167 168 161 155 159 164 166 169 175 191 188 177 160 142 154 165 170 171 170 178 179 155 131 116 87 53
325 317 312 308 245 213 169 162 171 174 185 186 179 171 168 169 174 175 167 159 158 166 166 173 185 187 197 202 194 175 158 166 171 174 187 193 195 198 179 156 153 153 147
337 345 357 357 313 212 158 169 176 192 192 172 162 165 170 172 171 167 163 158 159 162 172 185 198 200 206 209 206 194 175 182 181 188 198 217 210 208 199 184 180 193 170
349 357 8 5 2 64 145 167 191 189 155 153 160 167 167 167 166 164 165 163 165 173 184 193 208 216 215 216 218 213 206 196 188 198 203 215 217 214 210 200 199 193 165
346 353 8 11 12 26 109 158 181 147 146 151 162 165 164 166 165 169 171 172 178 188 195 199 212 218 215 221 224 223 218 210 198 204 210 214 219 217 216 213 205 184 156
343 349 11 17 8 12 39 105 143 145 149 159 165 166 169 172 173 176 179 185 191 199 202 207 216 217 215 218 219 218 222 219 210 203 216 218 220 211 208 218 215 181 178
338 355 8 6 357 11 27 40 105 137 146 156 165 171 177 179 183 189 197 201 206 204 206 210 208 208 221 224 215 206 207 197 196 176 175 182 191 201 201 206 208 198 197
341 357 4 6 6 24 27 24 66 134 149 161 174 181 184 186 188 195 216 224 222 228 230 227 220 223 229 233 225 222 221 217 209 197 200 207 210 215 217 217 217 212 212
Height
1496 1498 1500 1503 1506 1509 1512 1516 1518 1521 1525 1528 1531 1534 1537 1540 1543 1546 1548 1551 1553 1555 1556 1558 1559 1561 1562 1563 1564 1564 1565 1565 1566 1566 1565 1564 1564 1563 1563 1562 1562 1562 1561
1494 1496 1498 1501 1503 1506 1509 1512 1515 1518 1521 1524 1527 1531 1534 1537 1540 1542 1545 1548 1550 1551 1553 1555 1556 1558 1559 1560 1560 1561 1561 1562 1563 1562 1562 1561 1561 1559 1559 1559 1559 1558 1558
1490 1492 1495 1497 1500 1503 1505 1508 1511 1514 1518 1521 1525 1528 1531 1534 1537 1538 1541 1544 1546 1548 1550 1552 1553 1554 1555 1556 1557 1558 1558 1558 1559 1559 1559 1558 1557 1556 1555 1555 1555 1555 1555
1486 1488 1491 1493 1496 1499 1502 1505 1508 1511 1515 1518 1521 1523 1525 1528 1531 1534 1537 1540 1542 1544 1546 1548 1549 1550 1551 1552 1553 1554 1554 1555 1554 1555 1555 1555 1554 1554 1552 1552 1552 1552 1551
1481 1484 1487 1490 1493 1496 1499 1502 1505 1508 1511 1514 1517 1520 1523 1525 1528 1531 1534 1536 1538 1540 1542 1544 1545 1546 1547 1548 1549 1550 1550 1550 1550 1550 1550 1550 1550 1550 1549 1548 1547 1548 1547
1477 1480 1483 1486 1489 1492 1495 1498 1501 1505 1508 1511 1513 1516 1519 1521 1524 1527 1529 1532 1534 1537 1538 1540 1541 1542 1543 1543 1545 1545 1546 1546 1546 1546 1545 1545 1545 1544 1544 1544 1543 1543 1543
1472 1475 1478 1482 1485 1488 1491 1495 1498 1501 1504 1506 1509 1512 1515 1518 1521 1523 1525 1528 1530 1533 1534 1535 1537 1538 1538 1539 1540 1541 1541 1541 1541 1540 1540 1539 1539 1539 1539 1539 1538 1538 1538
1468 1471 1474 1477 1481 1484 1488 1491 1494 1497 1500 1503 1506 1509 1511 1514 1517 1519 1522 1524 1526 1529 1530 1532 1533 1533 1534 1535 1535 1535 1536 1536 1535 1535 1534 1534 1534 1534 1534 1534 1534 1533 1533
1465 1468 1470 1474 1477 1481 1484 1488 1491 1493 1496 1499 1502 1505 1508 1510 1513 1516 1518 1520 1523 1524 1526 1527 1529 1529 1530 1530 1530 1530 1530 1530 1530 1530 1529 1529 1528 1528 1528 1528 1529 1530 1529
1464 1466 1468 1471 1474 1477 1481 1484 1487 1490 1493 1496 1498 1501 1503 1506 1509 1512 1514 1516 1518 1520 1521 1523 1524 1525 1525 1526 1526 1525 1525 1525 1525 1525 1524 1523 1523 1523 1523 1523 1523 1524 1524
1464 1466 1467 1470 1472 1475 1478 1480 1483 1486 1489 1492 1495 1497 1500 1502 1504 1507 1509 1512 1514 1515 1517 1518 1519 1520 1520 1520 1520 1520 1520 1520 1520 1520 1519 1518 1518 1518 1518 1518 1518 1518 1519
1464 1465 1466 1468 1470 1472 1475 1477 1480 1482 1485 1488 1491 1493 1496 1498 1501 1503 1506 1508 1509 1511 1512 1513 1514 1515 1515 1515 1515 1515 1515 1515 1515 1515 1514 1513 1513 1513 1513 1513 1513 1513 1514
1463 1464 1465 1467 1468 1470 1472 1474 1477 1479 1482 1484 1487 1490 1492 1495 1497 1499 1501 1503 1505 1507 1508 1509 1510 1510 1510 1510 1511 1511 1511 1510 1510 1510 1509 1509 1508 1508 1508 1508 1509 1509 1510
1464 1464 1465 1466 1468 1469 1470 1472 1474 1476 1478 1481 1483 1486 1489 1491 1493 1495 1497 1499 1501 1502 1503 1505 1505 1505 1505 1505 1506 1506 1506 1505 1505 1505 1505 1504 1504 1504 1504 1504 1505 1505 1505
1463 1464 1464 1465 1466 1467 1468 1470 1471 1473 1475 1478 1480 1483 1485 1488 1490 1492 1494 1496 1497 1499 1500 1501 1501 1501 1501 1501 1501 1501 1501 1501 1501 1501 1501 1500 1500 1500 1500 1501 1501 1501 1501
1463 1463 1463 1463 1464 1465 1466 1467 1469 1471 1473 1475 1478 1480 1483 1485 1487 1489 1491 1493 1494 1495 1496 1497 1497 1497 1497 1497 1497 1497 1497 1497 1497 1497 1497 1497 1497 1497 1497 1497 1497 1497 1498
1462 1462 1461 1461 1462 1462 1463 1465 1466 1468 1470 1473 1475 1478 1480 1482 1484 1486 1488 1490 1491 1492 1492 1493 1493 1494 1493 1493 1493 1493 1493 1493 1493 1493 1493 1493 1493 1493 1493 1493 1493 1494 1494
1461 1460 1459 1459 1460 1460 1461 1462 1464 1466 1468 1470 1473 1475 1478 1480 1482 1484 1485 1487 1487 1488 1489 1489 1489 1490 1490 1490 1490 1489 1489 1489 1490 1490 1490 1490 1490 1490 1490 1490 1490 1490 1491
1459 1458 1457 1457 1457 1457 1458 1460 1461 1463 1465 1468 1470 1473 1475 1477 1479 1481 1482 1483 1484 1485 1485 1486 1486 1486 1486 1486 1486 1486 1486 1486 1486 1487 1487 1487 1487 1487 1487 1488 1488 1488 1488
1457 1456 1455 1454 1455 1455 1456 1457 1458 1460 1462 1465 1468 1470 1472 1474 1476 1478 1479 1480 1481 1481 1482 1482 1482 1482 1483 1483 1483 1483 1483 1483 1483 1484 1484 1484 1485 1485 1485 1485 1485 1486 1486
1455 1454 1453 1452 1452 1453 1453 1454 1456 1458 1460 1463 1465 1467 1469 1471 1473 1474 1475 1476 1477 1478 1478 1479 1479 1479 1479 1479 1479 1480 1480 1480 1480 1481 1481 1482 1482 1482 1482 1482 1483 1483 1483
1454 1453 1451 1451 1451 1451 1451 1452 1453 1456 1458 1460 1462 1464 1466 1467 1469 1471 1472 1473 1474 1474 1474 1475 1475 1475 1476 1476 1476 1476 1477 1477 1478 1478 1479 1479 1479 1479 1479 1480 1480 1480 1481
1453 1452 1451 1450 1449 1449 1449 1450 1452 1454 1455 1457 1459 1461 1462 1464 1466 1467 1468 1469 1470 1470 1471 1471 1471 1472 1472 1472 1473 1473 1473 1474 1474 1475 1475 1476 1476 1476 1477 1477 1477 1478 1478
1453 1451 1450 1449 1448 1448 1448 1449 1450 1451 1452 1454 1456 1457 1459 1460 1462 1463 1464 1465 1465 1466 1467 1467 1467 1468 1468 1469 1469 1469 1470 1471 1471 1472 1472 1472 1473 1473 1474 1474 1474 1475 1475
1451 1450 1449 1448 1447 1447 1447 1448 1448 1449 1450 1451 1452 1454 1455 1456 1457 1458 1460 1461 1462 1463 1463 1463 1463 1464 1464 1465 1465 1466 1466 1467 1468 1468 1468 1469 1469 1470 1470 1471 1471 1472 1472
1450 1449 1448 1447 1446 1446 1446 1446 1446 1447 1447 1448 1449 1451 1452 1452 1453 1454 1455 1456 1457 1458 1458 1459 1459 1459 1460 1461 1461 1462 1462 1463 1464 1464 1464 1464 1465 1466 1466 1467 1467 1468 1468